This demonstration page uses our WeatherBlox Daily Observations layout. Learn more.

Left ArrowRight Arrow

Hourly Observations for August 16, 2018

Temp ( °F °C ) Dew Point ( °F °C ) Humidity (%) Winds ( mph kmh ) Pressure ( in mb ) Visibility ( mi km ) Precip ( " mm )
12:53 am 00:53 Clear 72 22.2 53 11.7 52 52 Calm 29.89 1012 10 16 0.00 0.00
1:53 am 01:53 Clear 70 21.1 52 11.1 53 53 Calm 29.90 1012 10 16 0.00 0.00
2:53 am 02:53 Clear 69 20.6 52 11.1 55 55 Calm 29.91 1013 10 16 0.00 0.00
3:53 am 03:53 Clear 67 19.4 52 11.1 59 59 Calm 29.92 1013 10 16 0.00 0.00
4:53 am 04:53 Clear 66 18.9 51 10.6 59 59 NNE 3 6 29.92 1013 10 16 0.00 0.00
5:53 am 05:53 Clear 65 18.3 52 11.1 63 63 Calm 29.93 1014 10 16 0.00 0.00
6:53 am 06:53 Sunny 65 18.3 52 11.1 63 63 Calm 29.94 1014 8 13 0.00 0.00
7:53 am 07:53 Sunny 70 21.1 51 10.6 51 51 Calm 29.96 1015 8 13 0.00 0.00
8:53 am 08:53 Sunny 74 23.3 50 10 43 43 Calm 29.97 1015 9 14 0.00 0.00
9:53 am 09:53 Hazy 78 25.6 48 8.9 35 35 Calm 29.97 1015 3 5 0.00 0.00
10:08 am 10:08 Hazy 80 26.7 48 8.9 33 33 SSW 3 6 29.97 1015 3 4 0.00 0.00
10:53 am 10:53 Hazy 82 27.8 49 9.4 32 32 Calm 29.97 1015 3 4 0.00 0.00
11:28 am 11:28 Hazy 85 29.4 51 10.6 31 31 Calm 29.97 1015 3 5 0.00 0.00
11:53 am 11:53 Hazy 87 30.6 53 11.7 31 31 SSW 5 7 29.97 1015 3 5 0.00 0.00
12:53 pm 12:53 Hazy 91 32.8 52 11.1 26 26 VRB 6 9 29.95 1014 3 5 0.00 0.00
1:53 pm 13:53 Sunny with Smoke 92 33.3 48 8.9 22 22 Calm 29.94 1014 9 14 0.00 0.00
2:53 pm 14:53 Sunny with Smoke 97 36.1 35 1.7 11 11 Calm 29.93 1014 10 16 0.00 0.00
3:53 pm 15:53 Sunny with Smoke 98 36.7 35 1.7 11 11 SSE 13 20 29.91 1013 10 16 0.00 0.00
4:53 pm 16:53 Sunny with Smoke 98 36.7 35 1.7 11 11 SSE 15 24 29.90 1013 10 16 0.00 0.00
5:53 pm 17:53 Sunny with Smoke 96 35.6 36 2.2 12 12 SSE 10 17 29.91 1013 10 16 0.00 0.00
6:53 pm 18:53 Sunny with Smoke 93 33.9 39 3.9 15 15 SSE 7 11 29.91 1013 10 16 0.00 0.00
7:53 pm 19:53 Sunny with Smoke 89 31.7 42 5.6 19 19 S 6 9 29.91 1013 10 16 0.00 0.00
8:53 pm 20:53 Clear with Smoke 84 28.9 43 6.1 24 24 E 3 6 29.93 1014 10 16 0.00 0.00
9:53 pm 21:53 Clear with Smoke 80 26.7 47 8.3 31 31 Calm 29.95 1014 10 16 0.00 0.00
10:53 pm 22:53 Clear with Smoke 78 25.6 48 8.9 35 35 WSW 3 6 29.97 1015 10 16 0.00 0.00
11:53 pm 23:53 Clear with Smoke 76 24.4 47 8.3 36 36 Calm 29.98 1015 10 16 0.00 0.00

Powered by AerisWeather